Tracking 25963 objects as of 12-Aug-2022
HD Live streaming from Space Station
objects crossing your sky now

IRIDIUM 82

Track IRIDIUM 82 now!
10-day predictions
IRIDIUM 82 is classified as:


NORAD ID: 25467
Int'l Code: 1998-051A
Perigee: 473.2 km
Apogee: 710.8 km
Inclination: 86.4 °
Period: 96.4 minutes
Semi major axis: 6963 km
RCS: 4.1187 m2 (large)
Launch date: September 8, 1998
Source: United States (US)
Launch site: AIR FORCE WESTERN TEST RANGE (AFWTR)
aabbcc
Your satellite tracking list
Your tracking list is empty




NASA's NSSDC Master Catalog

Two Line Element Set (TLE):
1 25467U 98051A   22224.51639672  .00003629  00000-0  25076-3 0  9991
2 25467  86.3953 239.7546 0170617 146.9204 214.2839 14.94187708267287
Source of the keplerian elements: AFSPC